Location: Aalen
(48.8330°N, 10.1000°E)
Time: 09:38:20
(UTC+02:00)

Transit 2A - Pass Details

Date: 31 July 2021
Orbit: 594 x 964 km, 66.7° (Epoch: 24 September)

Event Time Altitude Azimuth Distance (km) Brightness Sun altitude
Rises 07:47:11 0° 203° (SSW) 2,830 8.6 17.0°
Reaches altitude 10° 07:49:23 10° 200° (SSW) 1,948 7.9 17.4°
Maximum altitude 07:53:39 61° 121° (ESE) 719 6.6 18.1°
Drops below altitude 10° 07:58:17 10° 41° (NE) 2,100 9.1 18.8°
Sets 08:00:44 0° 38° (NE) 3,073 9.8 19.2°
